TimeCDT,TemperatureF,Dew PointF,Humidity,Sea Level PressureIn,VisibilityMPH,Wind Direction,Wind SpeedMPH,Gust SpeedMPH,PrecipitationIn,Events,Conditions,WindDirDegrees,DateUTC
12:53 AM,39.0,-9999,N/A,29.97,10.0,SSW,12.7,-,N/A,,Clear,200,2014-03-17 05:53:00
1:53 AM,39.0,-9999,N/A,29.91,10.0,SSW,11.5,-,N/A,,Clear,210,2014-03-17 06:53:00
2:53 AM,39.9,-9999,N/A,29.87,10.0,SW,11.5,-,N/A,,Clear,220,2014-03-17 07:53:00
3:53 AM,37.9,-9999,N/A,29.83,10.0,SSW,8.1,-,N/A,,Clear,210,2014-03-17 08:53:00
4:53 AM,39.0,-9999,N/A,29.78,10.0,WSW,11.5,-,N/A,,Clear,250,2014-03-17 09:53:00
5:53 AM,37.0,-9999,N/A,29.76,10.0,WSW,10.4,-,N/A,,Clear,250,2014-03-17 10:53:00
6:53 AM,35.1,-9999,N/A,29.73,10.0,WSW,10.4,-,N/A,,Clear,250,2014-03-17 11:53:00
7:53 AM,35.1,-9999,N/A,29.73,10.0,West,10.4,-,N/A,,Clear,260,2014-03-17 12:53:00
8:53 AM,39.0,-9999,N/A,29.70,10.0,West,9.2,-,N/A,,Clear,260,2014-03-17 13:53:00
9:53 AM,43.0,28.0,56,29.67,10.0,WSW,10.4,-,N/A,,Clear,250,2014-03-17 14:53:00
10:53 AM,51.1,28.0,41,29.63,10.0,WSW,10.4,-,N/A,,Clear,250,2014-03-17 15:53:00
11:53 AM,59.0,27.0,29,29.57,10.0,SW,8.1,-,N/A,,Clear,220,2014-03-17 16:53:00
12:53 PM,69.1,21.0,16,29.50,10.0,South,16.1,-,N/A,,Clear,190,2014-03-17 17:53:00
1:53 PM,73.0,19.0,13,29.46,10.0,SSW,18.4,26.5,N/A,,Clear,200,2014-03-17 18:53:00
2:53 PM,73.9,15.1,11,29.38,10.0,SSW,19.6,27.6,N/A,,Clear,200,2014-03-17 19:53:00
3:53 PM,73.9,15.1,11,29.34,10.0,SSW,25.3,32.2,N/A,,Clear,200,2014-03-17 20:53:00
4:53 PM,75.0,14.0,10,29.29,10.0,SSW,21.9,32.2,N/A,,Clear,200,2014-03-17 21:53:00
5:53 PM,73.9,12.9,10,29.25,10.0,South,19.6,31.1,N/A,,Clear,190,2014-03-17 22:53:00
6:53 PM,70.0,17.1,13,29.26,10.0,South,20.7,32.2,N/A,,Clear,180,2014-03-17 23:53:00
7:53 PM,66.0,18.0,16,29.25,10.0,South,16.1,-,N/A,,Clear,170,2014-03-18 00:53:00
8:53 PM,62.1,19.9,20,29.25,10.0,South,17.3,-,N/A,,Clear,170,2014-03-18 01:53:00
9:53 PM,60.1,21.0,22,29.25,10.0,SSE,9.2,-,N/A,,Clear,150,2014-03-18 02:53:00
10:53 PM,59.0,21.9,24,29.28,10.0,Calm,Calm,-,N/A,,Partly Cloudy,0,2014-03-18 03:53:00
11:53 PM,52.0,21.9,31,29.26,10.0,ESE,11.5,-,N/A,,Clear,120,2014-03-18 04:53:00